Regional Weather Roundup
Issued by NWS

Home | Current Version | Previous Version | Text Only | Print | Product List | Glossary Off
Versions: 1 2 3 4 5 6 7 8 9 10 11 12 13 14 15 16 17 18 19 20 21 22 23 24 25 26 27 28 29 30 31 32 33 34 35 36 37 38 39 40 41 42 43 44 45 46 47 48 49 50

000
ASUS43 KDTX 272310
RWRMI
MICHIGAN HOURLY REGIONAL WEATHER ROUNDUP
NATIONAL WEATHER SERVICE DETROIT/PONTIAC MI
700 PM EDT THU AUG 27 2015

NOTE: "FAIR" INDICATES FEW OR NO CLOUDS BELOW 12,000 FEET WITH NO
SIGNIFICANT WEATHER AND/OR OBSTRUCTION TO VISIBILITY.

MIZ047>049-052>055-059>063-066>070-074>076-081>083-280000-
SOUTHEAST LOWER MICHIGAN

CITY           SKY/WX    TMP DP  RH WIND       PRES   REMARKS
ADRIAN         SUNNY     67  54  63 NE6       30.18F
ALMA           SUNNY     68  55  63 S7        30.16S
ANN ARBOR      CLOUDY    66  54  65 NW5       30.18S
BAD AXE        SUNNY     64  53  68 S3        30.18R
DETROIT CITY   CLOUDY    64  54  69 E3        30.19S
DETROIT        CLOUDY    67  53  61 W3        30.19R
FLINT          CLOUDY    67  55  65 S7        30.18F
GROSSE ILE     CLOUDY    66  55  68 CALM      30.17S
HILLSDALE      CLOUDY    67  57  68 N3        30.18S
HOWELL         CLOUDY    64  53  67 SW3       30.19F

CITY           SKY/WX    TMP DP  RH WIND       PRES   REMARKS
JACKSON        PTSUNNY   65  54  67 N5        30.18F
LAMBERTVILLE   MOSUNNY   70  54  58 N5        30.18S
LANSING        SUNNY     64  54  69 S6        30.18S
LAPEER         NOT AVBL
MASON          CLOUDY    61  54  76 SE5       30.18F
MONROE         CLOUDY    68  53  58 N5        30.17S
MT. CLEMENS    CLOUDY    64  55  71 N3        30.17S
PONTIAC        CLOUDY    62  53  72 CALM      30.18F
PORT HOPE        N/A     63  52  67 E3        30.17S
PORT HURON     CLOUDY    63  55  77 CALM      30.19S
TRI CITIES     SUNNY     69  55  60 S6        30.16F
YPSILANTI      CLOUDY    68  55  63 N6        30.19S
$$
MIZ043>046-050>051-056>058-064>065-071>073-077>080-280000-
SOUTHWEST LOWER MICHIGAN

CITY           SKY/WX    TMP DP  RH WIND       PRES   REMARKS
BATTLE CREEK   CLOUDY    68  54  60 SE3       30.17F
BENTON HARBOR  SUNNY     67  56  67 NW3       30.14F
BIG RAPIDS     SUNNY     68  59  73 W6        30.14S
COLDWATER      CLOUDY    66  55  68 NE3       30.17F
HOLLAND        SUNNY     69  58  67 W6        30.16F
GRAND RAPIDS   PTSUNNY   69  55  60 S5        30.16S
KALAMAZOO      MOSUNNY   69  55  60 VRB3      30.16F
MARSHALL       CLOUDY    66  54  66 CALM      30.16F
MUSKEGON       MOSUNNY   69  56  62 W5        30.15F
$$
MIZ016>042-280000-
NORTHERN LOWER MICHIGAN

CITY           SKY/WX    TMP DP  RH WIND       PRES   REMARKS
ALPENA         SUNNY     62  53  72 SE8       30.15F
BEAVER ISLAND  SUNNY     65  58  77 SW7       30.13R
BELLAIRE       SUNNY     70  58  66 NW3       30.12S
CADILLAC       CLOUDY    71  57  61 SW8       30.13S
CHARLEVOIX     SUNNY     68  59  73 W7        30.16R
FRANKFORT      CLEAR     67  59  75 SW8       30.13S
GAYLORD        SUNNY     70  54  56 NW3       30.13S
GRAYLING       SUNNY     70  55  59 SE3       30.14S
HARBOR SPRINGS SUNNY     67  58  74 SW3       30.13R
HOUGHTON LAKE  SUNNY     67  56  67 S3        30.14S
MANISTEE       SUNNY     68  55  64 SW7       30.14S
OSCODA         SUNNY     62  53  72 SE6       30.16S
PELLSTON       SUNNY     70  54  56 SW6       30.12S
TRAVERSE CITY  PTSUNNY   73  55  53 W9        30.11S
$$
MIZ007>008-015-280000-
EASTERN UPPER MICHIGAN

CITY           SKY/WX    TMP DP  RH WIND       PRES   REMARKS
KINROSS        SUNNY     66  54  63 S7        30.12R
MACKINAC ISLAN SUNNY     64  52  64 CALM      30.12S
NEWBERRY       SUNNY     64  56  74 S7        30.11R
S. S. MARIE    PTSUNNY   68  55  63 S8        30.10S
$$
MIZ004>006-011>014-085-280000-
CENTRAL UPPER MICHIGAN

CITY           SKY/WX    TMP DP  RH WIND       PRES   REMARKS
MANISTIQUE     SUNNY     63  58  84 S7        30.11R
ESCANABA       SUNNY     66  59  77 SE7       30.08F
MENOMINEE      SUNNY     68  57  68 S9        30.08S
SAWYER-GWINN   SUNNY     72  52  49 S9        30.07F
$$
MIZ001>003-009>011-084-280000-
WESTERN UPPER MICHIGAN

CITY           SKY/WX    TMP DP  RH WIND       PRES   REMARKS
IRON MOUNTAIN  SUNNY     72  57  59 S8        30.06S
HOUGHTON       SUNNY     64  53  67 SE6       30.04F
COPPER HARBOR    N/A     63  51  65 VRB7      30.04S
IRONWOOD       MOSUNNY   73  54  49 SW6       30.02R
$$

ABBREVIATIONS USED IN REMARKS
   TC - TEMPERATURE IN CELSIUS
  WCI - WIND CHILL INDEX
   HX - HEAT INDEX
  VSB - VISIBILITY




USA.gov is the U.S. government's official web portal to all federal, state and local government web resources and services.